Preview of NWS' New Version of Forecast
This preview is not operational and should not be used for support decisions.

Regional Weather Roundup (RWR)

Issued by Fort Worth/Dallas, TX (FWD)

                            
000
ASUS44 KFWD 170515
RWRFWD
NORTH TEXAS HOURLY WEATHER ROUNDUP
NATIONAL WEATHER SERVICE FORT WORTH TX
1100 PM CST SUN DEC 16 2018

NOTE: "FAIR" INDICATES FEW OR NO CLOUDS BELOW 12,000 FEET WITH NO
SIGNIFICANT WEATHER AND/OR OBSTRUCTIONS TO VISIBILITY.

TXZ118-119-170600-
DALLAS/FORT WORTH METROPLEX
  
CITY           SKY/WX    TMP DP  RH WIND       PRES   REMARKS
DFW AIRPORT    CLOUDY    51  37  58 NW7       30.24S                  
DALLAS LOVE    CLOUDY    52  39  61 W3        30.26R                  
FTW MEACHAM    FAIR      48  38  68 NW3       30.26R                  
DAL-EXECUTIVE    N/A     49  39  68 NW7       30.25R                  
FTW-ALLIANCE   CLOUDY    47  37  68 W5        30.26S                  
FTW-NAS-JRB    FAIR      48  38  68 NW7       30.27R                  
FTW-SPINKS     FAIR      46  38  72 CALM      30.28S                  
ARLINGTON      FAIR      48  40  73 NW6       30.26S                  
GRAND PRAIRIE  FAIR      52  37  55 CALM      30.28R                  
ADDISON        FAIR      50  37  61 CALM      30.27R                  
MESQUITE       FAIR      46  38  75 S5        30.26R                  
LANCASTER      FAIR      47  39  74 CALM      30.27S                  
$$

TXZ091>094-102>105-117-120-121-131>134-170600-
NORTH CENTRAL TEXAS
  
CITY           SKY/WX    TMP DP  RH WIND       PRES   REMARKS
SHRMAN/DENISON FAIR      44  37  74 CALM      30.26S                  
GAINESVILLE    FAIR      44  34  68 NE9       30.27S WCI  39          
BOWIE          FAIR      43  36  77 NW5       30.27R                  
BRIDGEPORT     FAIR      46  38  73 NW5       30.29S                  
DECATUR        FAIR      47  37  68 NW5       30.26S                  
DENTON         FAIR      44  37  76 W5        30.25S                  
MCKINNEY       FAIR      46  39  76 CALM        N/A                   
BONHAM         FAIR      44  36  72 NW6       30.24S                  
GREENVILLE     FAIR      52  37  58 CALM      30.25S                  
ROCKWALL       FAIR      52  41  67 S6        30.25S                  
TERRELL        FAIR      48  36  63 S3        30.26S                  
WAXAHACHIE     FAIR      48  41  75 W3        30.27F                  
CLEBURNE       FAIR      48  37  66 CALM      30.29R                  
GRANBURY       FAIR      50  38  64 W6        30.29R                  
$$

TXZ083>090-098>101-113>116-127>130-139>142-154-155-170600-
WESTERN NORTH TEXAS
  
CITY           SKY/WX    TMP DP  RH WIND       PRES   REMARKS
WICHITA FALLS  FAIR      44  35  70 NW6       30.29R                  
WF-KICKAPOO    FAIR      46  34  64 N8        30.31S                  
VERNON         FAIR      43  26  51 N7        30.32R WCI  39          
ABILENE        FAIR      44  38  79 CALM      30.29F                  
ABILENE-DYESS  MOCLDY    50  37  62 CALM      30.31F                  
GRAHAM         FAIR      40  38  93 CALM      30.27S                  
BRECKENRIDGE   FAIR      46  36  68 CALM      30.29R                  
CISCO          FAIR      46  36  66 W3        30.29F                  
EASTLAND       FAIR      40  35  81 CALM      30.29S                  
RANGER         FAIR      47  36  65 W5        30.29S                  
MINERAL WELLS  FAIR      46  37  71 W5        30.26S                  
STEPHENVILLE   FAIR      51  35  55 NW7       30.30F                  
COMANCHE       FAIR      52  36  54 N7        30.28F                  
BROWNWOOD      FAIR      46  37  71 CALM      30.28F                  
COLEMAN        FAIR      51  35  53 N3        30.28F                  
BRADY          FAIR      46  36  66 N6        30.27F                  
$$

TXZ143>147-156>162-174-175-170600-
CENTRAL TEXAS
  
CITY           SKY/WX    TMP DP  RH WIND       PRES   REMARKS
WACO           FAIR      49  41  74 CALM      30.27R                  
WACO-TSTC      CLEAR     48  39  71 CALM      30.28R                  
WACO-MCGREGOR  FAIR      50  43  77 SW3       30.27R                  
HILLSBORO      FAIR      48  43  81 S6        30.26S                  
CORSICANA      FAIR      51  38  60 SW7       30.27S                  
MEXIA          FAIR      51  38  59 SW5       30.26S                  
CAMERON        FAIR      53  36  52 SW6       30.27F                  
TEMPLE         FAIR      51  40  65 S7        30.27F                  
KILLEEN        FAIR      50  40  70 SE3       30.25F                  
KILLEEN-SKYLRK FAIR      49  42  77 CALM      30.27F                  
FORT HOOD      CLOUDY    50  43  76 NW3       30.23F                  
GATESVILLE     FAIR      48  39  71 N5        30.28F                  
HAMILTON       FAIR      50  38  63 CALM      30.28S                  
LAMPASAS       FAIR      47  40  77 CALM      30.25F                  
$$

TXZ095>097-106>112-122>126-135>138-148>153-164>167-170600-
EAST TEXAS
  
CITY           SKY/WX    TMP DP  RH WIND       PRES   REMARKS
PARIS          FAIR      45  39  79 SW3       30.24S                  
SULPHUR SPRNGS FAIR      49  38  66 SW8       30.25F                  
MOUNT PLEASANT FAIR      47  46  94 CALM      30.26F                  
GILMER         CLOUDY    48  47  94 CALM      30.26S                  
MINEOLA        FAIR      45  43  93 CALM      30.25S                  
TYLER          FAIR      51  46  83 SW5       30.26R                  
LONGVIEW       FAIR      50  49  96 CALM      30.25S                  
MARSHALL       FAIR      47  46  93 CALM      30.28R                  
ATHENS         FAIR      50  43  76 CALM      30.25S                  
PALESTINE      FAIR      50  45  84 CALM      30.28S                  
JACKSONVILLE   FAIR      52  47  84 SW3       30.28R                  
HENDERSON      FAIR      51  49  90 CALM      30.27S                  
CENTER         FAIR      47  46  96 CALM      30.27                   
NACOGDOCHES      N/A     47  47 100 CALM      30.27F FOG              
LUFKIN         FAIR      48  48 100 E3        30.26F                  
$$

SUPPLEMENTAL OBSERVATIONS (NWS FORT WORTH AREA)
  
CITY           SKY/WX    TMP DP  RH WIND       PRES   REMARKS
DENISON DAM      N/A     50  41  71 W6          N/A                   
CADDO GRASSLND   N/A     41  37  87 S1          N/A                   
LBJ GRASSLAND    N/A     45  36  70 N5          N/A                   
POSSUM KINGDOM   N/A     48  36  61 W5          N/A                   
GRANBURY         N/A     48  36  61 W6          N/A                   
COMANCHE         N/A     52  34  50 NW6         N/A                   
MCGREGOR         N/A     50  41  71 SW5         N/A                   
TEMPLE           N/A     52  37  58 SW5         N/A                   
LAKE LIMESTONE   N/A     52  43  71 S5          N/A                   
PALESTINE        N/A     52  45  76 S2          N/A                   
$$

SUPPLEMENTAL OBSERVATIONS (NWS NORMAN AREA)
  
CITY           SKY/WX    TMP DP  RH WIND       PRES   REMARKS
MILLERS CREEK    N/A     41  36  81 NW3         N/A                   
$$

SUPPLEMENTAL OBSERVATIONS (NWS SAN ANGELO AREA)
  
CITY           SKY/WX    TMP DP  RH WIND       PRES   REMARKS
HAMBY            N/A     41  36  81 CALM        N/A                   
IVIE RESERVOIR   N/A     48  37  66 SW2         N/A                   
COLORADO BEND    N/A     46  39  76 SW2         N/A                   
$$

SUPPLEMENTAL OBSERVATIONS (NWS SHREVEPORT AREA)
  
CITY           SKY/WX    TMP DP  RH WIND       PRES   REMARKS
TEXARKANA        N/A     45  43  93 CALM        N/A                   
LINDEN           N/A     48  46  93 CALM        N/A                   
CADDO LAKE       N/A     46  45  93 S1          N/A                   
N SABINE NF      N/A     48  46  93 MISG        N/A                   
$$

SUPPLEMENTAL OBSERVATIONS ARE A COLLECTION OF AUTOMATED INSTRUMENTS
THAT ARE MAINTAINED BY A VARIETY OF FEDERAL AND STATE AGENCIES. 
CERTAIN ELEMENTS...SUCH AS HUMIDITY VALUES AND SUSTAINED WIND 
SPEEDS...MAY BE APPROXIMATED.